Wetterdaten: aktuell Samstag, 13.04.2019 10:00
Datum Zeit Temp. I. Temp. A. Temp. 2 Feuchte I. Feuchte A. Luftdruck Regen Wind Richtung Richtung Taupunkt Windben
13.04.2019 10:00 18,5 C 4,7 C 4,7 C 69 % 39 % 1018,3 hPa 0,0 l/m 0,0 km/h N 360 -1,3 C 0,0 km/h
13.04.2019 09:55 18,5 C 4,7 C 4,7 C 69 % 39 % 1018,3 hPa 0,0 l/m 0,0 km/h N 360 -1,3 C 0,0 km/h
13.04.2019 09:50 18,5 C 4,7 C 4,7 C 69 % 39 % 1018,3 hPa 0,0 l/m 0,0 km/h N 360 -1,3 C 0,0 km/h
13.04.2019 09:45 18,5 C 4,6 C 4,7 C 69 % 39 % 1018,3 hPa 0,0 l/m 0,0 km/h N 360 -1,4 C 0,0 km/h
13.04.2019 09:40 18,5 C 4,7 C 4,6 C 69 % 39 % 1018,1 hPa 0,0 l/m 0,0 km/h N 360 -1,3 C 0,0 km/h
13.04.2019 09:35 18,5 C 4,7 C 4,7 C 69 % 39 % 1018,1 hPa 0,0 l/m 0,0 km/h N 360 -1,3 C 0,0 km/h
13.04.2019 09:30 18,5 C 4,6 C 4,8 C 68 % 39 % 1018,1 hPa 0,0 l/m 0,0 km/h N 360 -1,4 C 0,0 km/h
13.04.2019 09:25 18,5 C 4,7 C 4,7 C 69 % 39 % 1018,1 hPa 0,0 l/m 0,0 km/h N 360 -1,3 C 0,0 km/h
13.04.2019 09:20 18,6 C 4,5 C 4,6 C 69 % 39 % 1018,3 hPa 0,0 l/m 0,0 km/h N 360 -1,5 C 0,0 km/h
13.04.2019 09:15 18,6 C 4,4 C 4,7 C 69 % 39 % 1018,3 hPa 0,0 l/m 0,0 km/h N 360 -1,6 C 0,0 km/h
13.04.2019 09:10 18,6 C 4,5 C 4,5 C 69 % 39 % 1018,3 hPa 0,0 l/m 0,0 km/h N 360 -1,5 C 0,0 km/h
13.04.2019 09:05 18,6 C 4,3 C 4,4 C 69 % 38 % 1018,3 hPa 0,0 l/m 0,0 km/h N 360 -1,7 C 0,0 km/h
13.04.2019 09:00 18,6 C 4,4 C 4,5 C 69 % 39 % 1018,3 hPa 0,0 l/m 0,0 km/h N 360 -1,6 C 0,0 km/h
13.04.2019 08:55 18,6 C 4,3 C 4,4 C 69 % 38 % 1018,3 hPa 0,0 l/m 0,0 km/h N 360 -1,7 C 0,0 km/h
13.04.2019 08:50 18,6 C 4,3 C 4,5 C 69 % 38 % 1018,3 hPa 0,0 l/m 0,0 km/h N 360 -1,7 C 0,0 km/h
13.04.2019 08:45 18,6 C 4,4 C 4,5 C 69 % 39 % 1018,3 hPa 0,0 l/m 0,0 km/h N 360 -1,6 C 0,0 km/h
13.04.2019 08:40 18,6 C 4,3 C 4,4 C 69 % 38 % 1018,1 hPa 0,0 l/m 0,0 km/h N 360 -1,7 C 0,0 km/h
13.04.2019 08:35 18,6 C 4,3 C 4,4 C 69 % 38 % 1018,1 hPa 0,0 l/m 0,0 km/h N 360 -1,7 C 0,0 km/h
13.04.2019 08:30 18,6 C 4,2 C 4,3 C 69 % 38 % 1018,1 hPa 0,0 l/m 0,0 km/h N 360 -1,6 C 0,0 km/h
13.04.2019 08:25 18,6 C 4,2 C 4,3 C 69 % 38 % 1018,1 hPa 0,0 l/m 0,0 km/h N 360 -1,8 C 0,0 km/h
13.04.2019 08:20 18,6 C 4,1 C 4,3 C 69 % 38 % 1018,6 hPa 0,0 l/m 0,0 km/h N 360 -1,7 C 0,0 km/h
13.04.2019 08:15 18,6 C 4,1 C 4,2 C 70 % 38 % 1018,6 hPa 0,0 l/m 0,0 km/h N 360 -1,7 C 0,0 km/h
13.04.2019 08:10 18,6 C 4,0 C 4,0 C 70 % 38 % 1018,6 hPa 0,0 l/m 0,0 km/h N 360 -2,0 C 0,0 km/h
13.04.2019 08:05 18,6 C 4,0 C 4,1 C 70 % 38 % 1018,6 hPa 0,0 l/m 0,0 km/h N 360 -2,0 C 0,0 km/h
13.04.2019 08:00 18,6 C 4,1 C 4,1 C 70 % 38 % 1018,1 hPa 0,0 l/m 0,0 km/h N 360 -1,9 C 0,0 km/h
13.04.2019 07:55 18,6 C 4,1 C 4,1 C 70 % 38 % 1018,1 hPa 0,0 l/m 0,0 km/h N 360 -1,7 C 0,0 km/h
13.04.2019 07:50 18,6 C 4,0 C 4,0 C 70 % 38 % 1018,1 hPa 0,0 l/m 0,0 km/h N 360 -2,0 C 0,0 km/h
13.04.2019 07:45 18,6 C 4,0 C 4,0 C 70 % 38 % 1018,1 hPa 0,0 l/m 0,0 km/h N 360 -2,0 C 0,0 km/h
13.04.2019 07:40 18,7 C 3,9 C 4,0 C 70 % 38 % 1017,9 hPa 0,0 l/m 0,0 km/h N 360 -2,1 C 0,0 km/h
13.04.2019 07:35 18,7 C 3,9 C 3,9 C 70 % 38 % 1017,9 hPa 0,0 l/m 0,0 km/h N 360 -2,1 C 0,0 km/h
13.04.2019 07:30 18,7 C 3,9 C 3,9 C 70 % 38 % 1017,9 hPa 0,0 l/m 0,0 km/h N 360 -2,1 C 0,0 km/h
13.04.2019 07:25 18,7 C 3,9 C 3,9 C 70 % 38 % 1017,9 hPa 0,0 l/m 0,0 km/h N 360 -2,3 C 0,0 km/h
13.04.2019 07:20 18,7 C 4,0 C 4,0 C 70 % 38 % 1017,9 hPa 0,0 l/m 0,0 km/h N 360 -2,2 C 0,0 km/h
13.04.2019 07:15 18,7 C 3,9 C 3,9 C 70 % 38 % 1017,9 hPa 0,0 l/m 0,0 km/h N 360 -2,3 C 0,0 km/h
13.04.2019 07:10 18,7 C 3,9 C 3,8 C 70 % 38 % 1017,9 hPa 0,0 l/m 0,0 km/h N 360 -2,3 C 0,0 km/h
13.04.2019 07:05 18,7 C 3,9 C 3,9 C 70 % 38 % 1017,9 hPa 0,0 l/m 0,0 km/h N 360 -2,3 C 0,0 km/h
13.04.2019 07:00 18,7 C 3,9 C 3,8 C 70 % 38 % 1017,9 hPa 0,0 l/m 0,0 km/h N 360 -2,3 C 0,0 km/h
13.04.2019 06:55 18,7 C 4,0 C 3,9 C 70 % 38 % 1017,9 hPa 0,0 l/m 0,0 km/h N 360 -2,2 C 0,0 km/h
13.04.2019 06:50 18,7 C 3,9 C 3,9 C 70 % 38 % 1017,9 hPa 0,0 l/m 0,0 km/h N 360 -2,3 C 0,0 km/h
13.04.2019 06:45 18,7 C 4,0 C 3,9 C 70 % 38 % 1017,9 hPa 0,0 l/m 0,0 km/h N 360 -2,2 C 0,0 km/h
13.04.2019 06:40 18,7 C 4,0 C 3,9 C 70 % 38 % 1017,7 hPa 0,0 l/m 0,0 km/h N 360 -2,2 C 0,0 km/h
13.04.2019 06:35 18,7 C 4,1 C 4,0 C 70 % 38 % 1017,7 hPa 0,0 l/m 0,0 km/h N 360 -2,1 C 0,0 km/h
13.04.2019 06:30 18,7 C 4,1 C 3,9 C 70 % 38 % 1017,7 hPa 0,0 l/m 0,0 km/h N 360 -2,1 C 0,0 km/h
13.04.2019 06:25 18,8 C 4,0 C 3,9 C 70 % 38 % 1017,7 hPa 0,0 l/m 0,0 km/h N 360 -2,2 C 0,0 km/h
13.04.2019 06:20 18,8 C 4,1 C 3,9 C 70 % 38 % 1017,7 hPa 0,0 l/m 0,0 km/h N 360 -2,3 C 0,0 km/h
13.04.2019 06:15 18,8 C 4,0 C 4,0 C 70 % 38 % 1017,7 hPa 0,0 l/m 0,0 km/h N 360 -2,4 C 0,0 km/h
13.04.2019 06:10 18,8 C 4,0 C 4,0 C 70 % 38 % 1017,7 hPa 0,0 l/m 0,0 km/h N 360 -2,4 C 0,0 km/h
13.04.2019 06:05 18,8 C 4,1 C 4,1 C 70 % 38 % 1017,7 hPa 0,0 l/m 0,0 km/h N 360 -2,3 C 0,0 km/h
13.04.2019 06:00 18,8 C 4,1 C 4,1 C 70 % 38 % 1017,8 hPa 0,0 l/m 0,0 km/h N 360 -2,5 C 0,0 km/h
13.04.2019 05:55 18,8 C 4,1 C 4,1 C 70 % 38 % 1017,8 hPa 0,0 l/m 0,0 km/h N 360 -2,5 C 0,0 km/h
13.04.2019 05:50 18,8 C 4,2 C 4,1 C 70 % 38 % 1017,8 hPa 0,0 l/m 0,0 km/h N 360 -2,4 C 0,0 km/h
13.04.2019 05:45 18,8 C 4,3 C 4,1 C 70 % 38 % 1017,8 hPa 0,0 l/m 0,0 km/h N 360 -2,3 C 0,0 km/h
13.04.2019 05:40 18,8 C 4,2 C 4,3 C 70 % 38 % 1018,0 hPa 0,0 l/m 0,0 km/h N 360 -2,4 C 0,0 km/h
13.04.2019 05:35 18,8 C 4,2 C 4,3 C 70 % 38 % 1018,0 hPa 0,0 l/m 0,0 km/h N 360 -2,4 C 0,0 km/h
13.04.2019 05:30 18,8 C 4,3 C 4,3 C 70 % 38 % 1018,0 hPa 0,0 l/m 0,0 km/h N 360 -2,5 C 0,0 km/h
13.04.2019 05:25 18,8 C 4,3 C 4,3 C 70 % 38 % 1018,0 hPa 0,0 l/m 0,0 km/h N 360 -2,5 C 0,0 km/h
13.04.2019 05:20 18,8 C 4,3 C 4,3 C 70 % 38 % 1018,0 hPa 0,0 l/m 0,0 km/h N 360 -2,5 C 0,0 km/h
13.04.2019 05:15 18,8 C 4,3 C 4,3 C 70 % 38 % 1018,0 hPa 0,0 l/m 0,0 km/h N 360 -2,5 C 0,0 km/h
13.04.2019 05:10 18,8 C 4,4 C 4,3 C 70 % 39 % 1018,0 hPa 0,0 l/m 0,0 km/h N 360 -2,4 C 0,0 km/h
13.04.2019 05:05 18,8 C 4,4 C 4,3 C 70 % 39 % 1018,0 hPa 0,0 l/m 0,0 km/h N 360 -2,4 C 0,0 km/h
13.04.2019 05:00 18,8 C 4,4 C 4,3 C 70 % 39 % 1018,2 hPa 0,0 l/m 0,0 km/h N 360 -2,7 C 0,0 km/h
13.04.2019 04:55 18,8 C 4,4 C 4,4 C 70 % 39 % 1018,2 hPa 0,0 l/m 0,0 km/h N 360 -2,7 C 0,0 km/h
13.04.2019 04:50 18,8 C 4,5 C 4,5 C 70 % 39 % 1018,2 hPa 0,0 l/m 0,0 km/h N 360 -2,6 C 0,0 km/h
13.04.2019 04:45 18,8 C 4,5 C 4,5 C 70 % 39 % 1018,2 hPa 0,0 l/m 0,0 km/h N 360 -2,6 C 0,0 km/h
13.04.2019 04:40 18,8 C 4,6 C 4,5 C 70 % 39 % 1018,3 hPa 0,0 l/m 0,0 km/h N 360 -2,7 C 0,0 km/h
13.04.2019 04:35 18,8 C 4,7 C 4,4 C 70 % 39 % 1018,3 hPa 0,0 l/m 0,0 km/h N 360 -2,6 C 0,0 km/h
13.04.2019 04:30 18,8 C 12,0 C 8,4 C 70 % 52 % 1018,3 hPa 0,0 l/m 0,0 km/h N 360 -10,2 C 0,0 km/h
13.04.2019 04:25 18,9 C 12,0 C 8,4 C 70 % 52 % 1018,3 hPa 0,0 l/m 0,0 km/h N 360 -10,2 C 0,0 km/h
13.04.2019 04:20 18,9 C 12,0 C 8,4 C 70 % 52 % 1018,3 hPa 0,0 l/m 0,0 km/h N 360 -10,2 C 0,0 km/h
13.04.2019 04:15 18,9 C 12,0 C 8,4 C 70 % 52 % 1018,3 hPa 0,0 l/m 0,0 km/h N 360 -10,2 C 0,0 km/h
13.04.2019 04:10 18,9 C 12,0 C 8,4 C 70 % 52 % 1018,3 hPa 0,0 l/m 0,0 km/h N 360 -10,2 C 0,0 km/h
13.04.2019 04:05 18,9 C 12,0 C 8,4 C 70 % 52 % 1018,3 hPa 0,0 l/m 0,0 km/h N 360 -10,2 C 0,0 km/h
13.04.2019 04:00 18,9 C 12,0 C 8,4 C 70 % 52 % 1018,3 hPa 0,0 l/m 0,0 km/h N 360 -10,2 C 0,0 km/h
13.04.2019 03:55 18,9 C 12,0 C 8,4 C 70 % 52 % 1018,3 hPa 0,0 l/m 0,0 km/h N 360 -10,2 C 0,0 km/h
13.04.2019 03:50 18,9 C 12,0 C 8,4 C 70 % 52 % 1018,3 hPa 0,0 l/m 0,0 km/h N 360 -10,2 C 0,0 km/h
13.04.2019 03:45 18,9 C 12,0 C 8,4 C 70 % 52 % 1018,3 hPa 0,0 l/m 0,0 km/h N 360 -10,2 C 0,0 km/h
13.04.2019 03:40 18,9 C 12,0 C 8,4 C 70 % 52 % 1018,5 hPa 0,0 l/m 0,0 km/h N 360 -10,2 C 0,0 km/h
13.04.2019 03:35 18,9 C 12,0 C 8,4 C 70 % 52 % 1018,5 hPa 0,0 l/m 0,0 km/h N 360 -10,2 C 0,0 km/h
13.04.2019 03:30 19,0 C 12,0 C 8,4 C 70 % 52 % 1018,5 hPa 0,0 l/m 0,0 km/h N 360 -10,2 C 0,0 km/h
13.04.2019 03:25 18,9 C 12,0 C 8,4 C 70 % 52 % 1018,5 hPa 0,0 l/m 0,0 km/h N 360 -10,2 C 0,0 km/h
13.04.2019 03:20 19,0 C 12,0 C 8,4 C 70 % 52 % 1018,6 hPa 0,0 l/m 0,0 km/h N 360 -10,2 C 0,0 km/h
13.04.2019 03:15 19,0 C 12,0 C 8,4 C 70 % 52 % 1018,6 hPa 0,0 l/m 0,0 km/h N 360 -10,2 C 0,0 km/h
13.04.2019 03:10 19,0 C 12,0 C 8,4 C 70 % 52 % 1018,6 hPa 0,0 l/m 0,0 km/h N 360 -10,2 C 0,0 km/h
13.04.2019 03:05 19,0 C 12,0 C 8,4 C 70 % 52 % 1018,6 hPa 0,0 l/m 0,0 km/h N 360 -10,2 C 0,0 km/h
13.04.2019 03:00 19,0 C 12,0 C 8,4 C 70 % 52 % 1018,6 hPa 0,0 l/m 0,0 km/h N 360 -10,2 C 0,0 km/h
13.04.2019 02:55 19,0 C 12,0 C 8,4 C 70 % 52 % 1018,6 hPa 0,0 l/m 0,0 km/h N 360 -10,2 C 0,0 km/h
13.04.2019 02:50 19,0 C 12,0 C 8,4 C 70 % 52 % 1018,6 hPa 0,0 l/m 0,0 km/h N 360 -10,2 C 0,0 km/h
13.04.2019 02:45 19,0 C 12,0 C 8,4 C 70 % 52 % 1018,6 hPa 0,0 l/m 0,0 km/h N 360 -10,2 C 0,0 km/h
13.04.2019 02:40 19,0 C 12,0 C 8,4 C 70 % 52 % 1018,7 hPa 0,0 l/m 0,0 km/h N 360 -10,2 C 0,0 km/h
13.04.2019 02:35 19,0 C 12,0 C 8,4 C 70 % 52 % 1018,7 hPa 0,0 l/m 0,0 km/h N 360 -10,2 C 0,0 km/h
13.04.2019 02:30 19,0 C 12,0 C 8,4 C 70 % 52 % 1018,7 hPa 0,0 l/m 0,0 km/h N 360 -10,2 C 0,0 km/h
13.04.2019 02:25 19,0 C 12,0 C 8,4 C 70 % 52 % 1018,7 hPa 0,0 l/m 0,0 km/h N 360 -10,2 C 0,0 km/h
13.04.2019 02:20 19,1 C 12,0 C 8,4 C 70 % 52 % 1018,8 hPa 0,0 l/m 0,0 km/h N 360 -10,2 C 0,0 km/h
13.04.2019 02:15 19,1 C 12,0 C 8,4 C 70 % 52 % 1018,8 hPa 0,0 l/m 0,0 km/h N 360 -10,2 C 0,0 km/h
13.04.2019 02:10 19,1 C 12,0 C 8,4 C 70 % 52 % 1018,8 hPa 0,0 l/m 0,0 km/h N 360 -10,2 C 0,0 km/h
13.04.2019 02:05 19,1 C 12,0 C 8,4 C 70 % 52 % 1018,8 hPa 0,0 l/m 0,0 km/h N 360 -10,2 C 0,0 km/h
13.04.2019 02:00 19,1 C 12,0 C 8,4 C 70 % 52 % 1019,1 hPa 0,0 l/m 0,0 km/h N 360 -10,2 C 0,0 km/h
13.04.2019 01:55 19,1 C 12,0 C 8,4 C 70 % 52 % 1019,1 hPa 0,0 l/m 0,0 km/h N 360 -10,2 C 0,0 km/h
13.04.2019 01:50 19,1 C 12,0 C 8,4 C 70 % 52 % 1019,1 hPa 0,0 l/m 0,0 km/h N 360 -10,2 C 0,0 km/h
13.04.2019 01:45 19,2 C 12,0 C 8,4 C 70 % 52 % 1019,1 hPa 0,0 l/m 0,0 km/h N 360 -10,2 C 0,0 km/h
13.04.2019 01:40 19,2 C 12,0 C 8,4 C 70 % 52 % 1018,9 hPa 0,0 l/m 0,0 km/h N 360 -10,2 C 0,0 km/h
13.04.2019 01:35 19,2 C 12,0 C 8,4 C 70 % 52 % 1018,9 hPa 0,0 l/m 0,0 km/h N 360 -10,2 C 0,0 km/h
13.04.2019 01:30 19,2 C 12,0 C 8,4 C 70 % 52 % 1018,9 hPa 0,0 l/m 0,0 km/h N 360 -10,2 C 0,0 km/h
13.04.2019 01:25 19,2 C 12,0 C 8,4 C 70 % 52 % 1018,9 hPa 0,0 l/m 0,0 km/h N 360 -10,2 C 0,0 km/h
13.04.2019 01:20 19,2 C 12,0 C 8,4 C 70 % 52 % 1019,1 hPa 0,0 l/m 0,0 km/h N 360 -10,2 C 0,0 km/h
13.04.2019 01:15 19,2 C 12,0 C 8,4 C 70 % 52 % 1019,1 hPa 0,0 l/m 0,0 km/h N 360 -10,2 C 0,0 km/h
13.04.2019 01:10 19,2 C 12,0 C 8,4 C 70 % 52 % 1019,1 hPa 0,0 l/m 0,0 km/h N 360 -10,2 C 0,0 km/h
13.04.2019 01:05 19,3 C 12,0 C 8,4 C 70 % 52 % 1019,1 hPa 0,0 l/m 0,0 km/h N 360 -10,2 C 0,0 km/h
13.04.2019 01:00 19,3 C 12,0 C 8,4 C 70 % 52 % 1019,1 hPa 0,0 l/m 0,0 km/h N 360 -10,2 C 0,0 km/h
13.04.2019 00:55 19,2 C 12,0 C 8,4 C 70 % 52 % 1019,1 hPa 0,0 l/m 0,0 km/h N 360 -10,2 C 0,0 km/h
13.04.2019 00:50 19,2 C 12,0 C 8,4 C 70 % 52 % 1019,1 hPa 0,0 l/m 0,0 km/h N 360 -10,2 C 0,0 km/h
13.04.2019 00:45 19,2 C 12,0 C 8,4 C 70 % 52 % 1019,1 hPa 0,0 l/m 0,0 km/h N 360 -10,2 C 0,0 km/h
13.04.2019 00:40 19,4 C 12,0 C 8,4 C 70 % 52 % 1019,2 hPa 0,0 l/m 0,0 km/h N 360 -10,2 C 0,0 km/h
13.04.2019 00:35 19,4 C 12,0 C 8,4 C 70 % 52 % 1019,2 hPa 0,0 l/m 0,0 km/h N 360 -10,2 C 0,0 km/h
13.04.2019 00:30 19,4 C 12,0 C 8,4 C 69 % 52 % 1019,2 hPa 0,0 l/m 0,0 km/h N 360 -10,2 C 0,0 km/h
13.04.2019 00:25 19,4 C 12,0 C 8,4 C 69 % 52 % 1019,2 hPa 0,0 l/m 0,0 km/h N 360 -10,2 C 0,0 km/h
13.04.2019 00:20 19,5 C 12,0 C 8,4 C 70 % 52 % 1019,4 hPa 0,0 l/m 0,0 km/h N 360 -10,2 C 0,0 km/h
13.04.2019 00:15 19,5 C 12,0 C 8,4 C 69 % 52 % 1019,4 hPa 0,0 l/m 0,0 km/h N 360 -10,2 C 0,0 km/h
13.04.2019 00:10 19,6 C 12,0 C 8,4 C 69 % 52 % 1019,4 hPa 0,0 l/m 0,0 km/h N 360 -10,2 C 0,0 km/h
13.04.2019 00:05 19,6 C 12,0 C 8,4 C 69 % 52 % 1019,4 hPa 0,0 l/m 0,0 km/h N 360 -10,2 C 0,0 km/h
13.04.2019 00:00 19,6 C 12,0 C 8,4 C 70 % 52 % 1019,3 hPa 0,0 l/m 0,0 km/h N 360 -10,2 C 0,0 km/h
_ Min-Zeit 09:25 06:50 07:00 09:30 - 06:05 - 00:00 - - 00:00 00:00
Minimum _ 18,5 C 3,9 C 3,8 C 68 % - 1017,7 hPa - 0,0 km/h - - -10,2 C 0,0 km/h
_ Max-Zeit 00:00 00:00 00:00 00:00 00:00 00:05 00:00 00:00 - - 09:25 00:00
Maximum _ 19,6 C 12,0 C 8,4 C 70 % 52 % 1019,4 hPa 0,0 l/m 0,0 km/h
N
- - -1,3 C 0,0 km/h
N
Durchschnitt _ 18,9 C 7,8 C 6,1 C 70 % #10 min. 1018,4 hPa #0,0 l/m 0,0 km/h N - -5,8 C 0,0 km/h